Time,TemperatureF,DewpointF,PressureIn,WindDirection,WindDirectionDegrees,WindSpeedMPH,WindSpeedGustMPH,Humidity,HourlyPrecipIn,Conditions,Clouds,dailyrainin,SoftwareType,DateUTC
2013-09-25 00:06:00,70.0,69.0,29.81,WNW,283,0.0,0.0,98,0.00,,,1.02,weatherlink.com 1.10,2013-09-25 05:06:00,
2013-09-25 00:21:00,69.7,69.0,29.82,WNW,283,0.0,0.0,98,0.00,,,1.02,weatherlink.com 1.10,2013-09-25 05:21:00,
2013-09-25 00:36:00,69.6,69.0,29.81,WNW,283,0.0,0.0,98,0.00,,,1.02,weatherlink.com 1.10,2013-09-25 05:36:00,
2013-09-25 00:51:00,69.4,69.0,29.81,WNW,283,0.0,0.0,98,0.00,,,1.02,weatherlink.com 1.10,2013-09-25 05:51:00,
2013-09-25 01:06:00,69.3,69.0,29.81,WNW,283,0.0,0.0,98,0.00,,,0.00,weatherlink.com 1.10,2013-09-25 06:06:00,
2013-09-25 01:21:00,69.0,69.0,29.80,WNW,283,0.0,0.0,98,0.00,,,0.00,weatherlink.com 1.10,2013-09-25 06:21:00,
2013-09-25 01:36:00,68.7,68.0,29.80,WNW,283,0.0,0.0,98,0.00,,,0.00,weatherlink.com 1.10,2013-09-25 06:36:00,
2013-09-25 01:51:00,68.5,68.0,29.81,WNW,283,0.0,0.0,98,0.00,,,0.00,weatherlink.com 1.10,2013-09-25 06:51:00,
2013-09-25 02:06:00,68.3,68.0,29.81,WNW,282,0.0,0.0,98,0.00,,,0.00,weatherlink.com 1.10,2013-09-25 07:06:00,
2013-09-25 02:21:00,68.2,68.0,29.80,WNW,283,0.0,0.0,98,0.00,,,0.00,weatherlink.com 1.10,2013-09-25 07:21:00,
2013-09-25 02:36:00,68.0,68.0,29.80,WNW,283,0.0,0.0,98,0.00,,,0.00,weatherlink.com 1.10,2013-09-25 07:36:00,
2013-09-25 02:51:00,67.9,67.0,29.80,WNW,282,0.0,0.0,98,0.00,,,0.00,weatherlink.com 1.10,2013-09-25 07:51:00,
2013-09-25 03:06:00,68.1,68.0,29.80,WNW,283,0.0,0.0,98,0.00,,,0.00,weatherlink.com 1.10,2013-09-25 08:06:00,
2013-09-25 03:21:00,68.1,68.0,29.80,WNW,283,0.0,0.0,98,0.00,,,0.00,weatherlink.com 1.10,2013-09-25 08:21:00,
2013-09-25 03:36:00,68.0,68.0,29.80,WNW,282,0.0,0.0,98,0.00,,,0.00,weatherlink.com 1.10,2013-09-25 08:36:00,
2013-09-25 03:51:00,67.9,67.0,29.80,WNW,282,0.0,0.0,98,0.00,,,0.00,weatherlink.com 1.10,2013-09-25 08:51:00,
2013-09-25 04:06:00,67.7,67.0,29.80,WNW,283,0.0,0.0,98,0.00,,,0.00,weatherlink.com 1.10,2013-09-25 09:06:00,
2013-09-25 04:21:00,67.7,67.0,29.80,WNW,283,0.0,0.0,98,0.00,,,0.00,weatherlink.com 1.10,2013-09-25 09:21:00,
2013-09-25 04:36:00,67.5,67.0,29.80,WNW,283,0.0,0.0,98,0.00,,,0.00,weatherlink.com 1.10,2013-09-25 09:36:00,
2013-09-25 04:51:00,67.2,67.0,29.80,WNW,282,0.0,0.0,98,0.00,,,0.00,weatherlink.com 1.10,2013-09-25 09:51:00,
2013-09-25 05:06:00,66.9,66.0,29.80,WNW,283,0.0,0.0,98,0.00,,,0.00,weatherlink.com 1.10,2013-09-25 10:06:00,
2013-09-25 05:21:00,66.7,66.0,29.80,WNW,282,0.0,0.0,98,0.00,,,0.00,weatherlink.com 1.10,2013-09-25 10:21:00,
2013-09-25 05:36:00,66.5,66.0,29.80,WNW,283,0.0,0.0,98,0.00,,,0.00,weatherlink.com 1.10,2013-09-25 10:36:00,
2013-09-25 05:51:00,66.3,66.0,29.81,WNW,283,0.0,0.0,98,0.00,,,0.00,weatherlink.com 1.10,2013-09-25 10:51:00,
2013-09-25 06:06:00,66.2,66.0,29.81,WNW,283,0.0,0.0,98,0.00,,,0.00,weatherlink.com 1.10,2013-09-25 11:06:00,
2013-09-25 06:21:00,66.1,66.0,29.81,WNW,282,0.0,0.0,98,0.00,,,0.00,weatherlink.com 1.10,2013-09-25 11:21:00,
2013-09-25 06:36:00,65.9,65.0,29.82,WNW,283,0.0,0.0,98,0.00,,,0.00,weatherlink.com 1.10,2013-09-25 11:36:00,
2013-09-25 06:51:00,65.7,65.0,29.82,WNW,282,0.0,0.0,98,0.00,,,0.00,weatherlink.com 1.10,2013-09-25 11:51:00,
2013-09-25 07:06:00,65.8,65.0,29.83,WNW,283,0.0,1.0,98,0.00,,,0.00,weatherlink.com 1.10,2013-09-25 12:06:00,
2013-09-25 07:21:00,66.3,66.0,29.83,WNW,283,0.0,0.0,99,0.00,,,0.00,weatherlink.com 1.10,2013-09-25 12:21:00,
2013-09-25 07:36:00,66.7,66.0,29.84,WNW,283,0.0,0.0,99,0.00,,,0.00,weatherlink.com 1.10,2013-09-25 12:36:00,
2013-09-25 07:51:00,67.3,67.0,29.84,WNW,283,0.0,0.0,99,0.00,,,0.00,weatherlink.com 1.10,2013-09-25 12:51:00,
2013-09-25 08:06:00,68.8,69.0,29.84,WNW,283,0.0,0.0,99,0.00,,,0.00,weatherlink.com 1.10,2013-09-25 13:06:00,
2013-09-25 08:21:00,70.0,70.0,29.84,WNW,283,0.0,0.0,99,0.00,,,0.00,weatherlink.com 1.10,2013-09-25 13:21:00,
2013-09-25 08:36:00,71.1,71.0,29.85,WSW,252,0.0,1.0,99,0.00,,,0.00,weatherlink.com 1.10,2013-09-25 13:36:00,
2013-09-25 08:51:00,71.9,72.0,29.85,WSW,254,0.0,1.0,99,0.00,,,0.00,weatherlink.com 1.10,2013-09-25 13:51:00,
2013-09-25 09:06:00,72.8,73.0,29.85,WSW,256,0.0,1.0,99,0.00,,,0.00,weatherlink.com 1.10,2013-09-25 14:06:00,
2013-09-25 09:21:00,72.7,72.0,29.85,WSW,252,0.0,2.0,99,0.00,,,0.00,weatherlink.com 1.10,2013-09-25 14:21:00,
2013-09-25 09:36:00,74.0,73.0,29.85,West,263,0.0,2.0,96,0.00,,,0.00,weatherlink.com 1.10,2013-09-25 14:36:00,
2013-09-25 09:51:00,76.1,73.0,29.85,West,266,1.0,1.0,89,0.00,,,0.00,weatherlink.com 1.10,2013-09-25 14:51:00,
2013-09-25 10:06:00,77.3,71.0,29.85,WNW,302,1.0,2.0,82,0.00,,,0.00,weatherlink.com 1.10,2013-09-25 15:06:00,
2013-09-25 10:21:00,79.0,71.0,29.85,SSE,166,0.0,2.0,77,0.00,,,0.00,weatherlink.com 1.10,2013-09-25 15:21:00,
2013-09-25 10:36:00,80.3,70.0,29.85,SSW,200,2.0,3.0,70,0.00,,,0.00,weatherlink.com 1.10,2013-09-25 15:36:00,
2013-09-25 10:51:00,80.5,71.0,29.85,WNW,287,1.0,4.0,72,0.00,,,0.00,weatherlink.com 1.10,2013-09-25 15:51:00,
2013-09-25 11:06:00,81.1,69.0,29.84,North,353,1.0,6.0,67,0.00,,,0.00,weatherlink.com 1.10,2013-09-25 16:06:00,
2013-09-25 11:21:00,82.1,70.0,29.84,WNW,291,1.0,2.0,67,0.00,,,0.00,weatherlink.com 1.10,2013-09-25 16:21:00,
2013-09-25 11:36:00,82.6,69.0,29.84,SW,225,1.0,4.0,63,0.00,,,0.00,weatherlink.com 1.10,2013-09-25 16:36:00,
2013-09-25 11:51:00,82.4,69.0,29.83,West,264,2.0,6.0,63,0.00,,,0.00,weatherlink.com 1.10,2013-09-25 16:51:00,
2013-09-25 12:06:00,83.1,69.0,29.83,West,273,2.0,5.0,62,0.00,,,0.00,weatherlink.com 1.10,2013-09-25 17:06:00,
2013-09-25 12:21:00,84.0,70.0,29.82,WSW,251,2.0,3.0,62,0.00,,,0.00,weatherlink.com 1.10,2013-09-25 17:21:00,
2013-09-25 12:36:00,84.5,69.0,29.82,West,260,1.0,4.0,60,0.00,,,0.00,weatherlink.com 1.10,2013-09-25 17:36:00,
2013-09-25 12:51:00,84.8,67.0,29.82,West,278,1.0,7.0,56,0.00,,,0.00,weatherlink.com 1.10,2013-09-25 17:51:00,
2013-09-25 13:06:00,85.7,68.0,29.82,WNW,302,1.0,4.0,55,0.00,,,0.00,weatherlink.com 1.10,2013-09-25 18:06:00,
2013-09-25 13:22:00,85.8,67.0,29.81,WNW,293,1.0,5.0,53,0.00,,,0.00,weatherlink.com 1.10,2013-09-25 18:22:00,
2013-09-25 13:37:00,86.8,67.0,29.80,WNW,295,1.0,4.0,52,0.00,,,0.00,weatherlink.com 1.10,2013-09-25 18:37:00,
2013-09-25 13:52:00,86.8,66.0,29.80,WSW,249,8.0,8.0,50,0.00,,,0.00,weatherlink.com 1.10,2013-09-25 18:52:00,
2013-09-25 14:07:00,87.4,64.0,29.79,South,176,2.0,6.0,46,0.00,,,0.00,weatherlink.com 1.10,2013-09-25 19:07:00,
2013-09-25 14:22:00,87.5,64.0,29.79,WNW,301,2.0,8.0,45,0.00,,,0.00,weatherlink.com 1.10,2013-09-25 19:22:00,
2013-09-25 14:37:00,87.4,64.0,29.79,NW,305,2.0,7.0,45,0.00,,,0.00,weatherlink.com 1.10,2013-09-25 19:37:00,
2013-09-25 14:52:00,87.3,64.0,29.79,WSW,252,2.0,8.0,46,0.00,,,0.00,weatherlink.com 1.10,2013-09-25 19:52:00,
2013-09-25 15:07:00,87.4,61.0,29.78,SSW,197,4.0,7.0,41,0.00,,,0.00,weatherlink.com 1.10,2013-09-25 20:07:00,
2013-09-25 15:22:00,87.1,59.0,29.78,WNW,288,1.0,7.0,39,0.00,,,0.00,weatherlink.com 1.10,2013-09-25 20:22:00,
2013-09-25 15:37:00,87.6,60.0,29.78,ESE,110,2.0,5.0,39,0.00,,,0.00,weatherlink.com 1.10,2013-09-25 20:37:00,
2013-09-25 15:52:00,87.6,59.0,29.78,SE,134,2.0,10.0,38,0.00,,,0.00,weatherlink.com 1.10,2013-09-25 20:52:00,
2013-09-25 16:07:00,87.3,59.0,29.78,SW,225,4.0,6.0,38,0.00,,,0.00,weatherlink.com 1.10,2013-09-25 21:07:00,
2013-09-25 16:22:00,87.8,61.0,29.78,WNW,291,0.0,4.0,40,0.00,,,0.00,weatherlink.com 1.10,2013-09-25 21:22:00,
2013-09-25 16:37:00,87.4,62.0,29.78,NW,307,2.0,6.0,42,0.00,,,0.00,weatherlink.com 1.10,2013-09-25 21:37:00,
2013-09-25 16:52:00,87.3,63.0,29.78,NE,49,4.0,4.0,44,0.00,,,0.00,weatherlink.com 1.10,2013-09-25 21:52:00,
2013-09-25 17:07:00,86.5,63.0,29.78,WNW,290,2.0,5.0,45,0.00,,,0.00,weatherlink.com 1.10,2013-09-25 22:07:00,
2013-09-25 17:22:00,86.4,63.0,29.78,North,5,2.0,3.0,45,0.00,,,0.00,weatherlink.com 1.10,2013-09-25 22:22:00,
2013-09-25 17:37:00,85.6,63.0,29.78,West,274,1.0,3.0,47,0.00,,,0.00,weatherlink.com 1.10,2013-09-25 22:37:00,
2013-09-25 17:52:00,85.9,64.0,29.79,NW,321,2.0,3.0,48,0.00,,,0.00,weatherlink.com 1.10,2013-09-25 22:52:00,
2013-09-25 18:07:00,84.8,65.0,29.79,NNE,24,0.0,1.0,51,0.00,,,0.00,weatherlink.com 1.10,2013-09-25 23:07:00,
2013-09-25 18:22:00,83.6,65.0,29.79,WNW,284,0.0,1.0,54,0.00,,,0.00,weatherlink.com 1.10,2013-09-25 23:22:00,
2013-09-25 18:37:00,81.0,65.0,29.80,NNW,336,0.0,1.0,58,0.00,,,0.00,weatherlink.com 1.10,2013-09-25 23:37:00,
2013-09-25 18:52:00,78.9,66.0,29.80,NNW,336,0.0,0.0,64,0.00,,,0.00,weatherlink.com 1.10,2013-09-25 23:52:00,
2013-09-25 19:07:00,76.8,66.0,29.80,NNW,335,0.0,0.0,69,0.00,,,0.00,weatherlink.com 1.10,2013-09-26 00:07:00,
2013-09-25 19:22:00,74.9,66.0,29.80,NNW,335,0.0,0.0,74,0.00,,,0.00,weatherlink.com 1.10,2013-09-26 00:22:00,
2013-09-25 19:37:00,74.0,66.0,29.81,NNW,336,0.0,0.0,75,0.00,,,0.00,weatherlink.com 1.10,2013-09-26 00:37:00,
2013-09-25 19:52:00,73.3,66.0,29.82,NNW,336,0.0,0.0,78,0.00,,,0.00,weatherlink.com 1.10,2013-09-26 00:52:00,
2013-09-25 20:07:00,72.4,66.0,29.82,NNW,336,0.0,0.0,80,0.00,,,0.00,weatherlink.com 1.10,2013-09-26 01:07:00,
2013-09-25 20:22:00,71.4,66.0,29.82,NNW,336,0.0,0.0,82,0.00,,,0.00,weatherlink.com 1.10,2013-09-26 01:22:00,
2013-09-25 20:37:00,70.9,66.0,29.83,NNW,336,0.0,0.0,84,0.00,,,0.00,weatherlink.com 1.10,2013-09-26 01:37:00,
2013-09-25 20:52:00,70.5,66.0,29.83,NNW,335,0.0,0.0,84,0.00,,,0.00,weatherlink.com 1.10,2013-09-26 01:52:00,
2013-09-25 21:07:00,69.9,65.0,29.84,NNW,335,0.0,0.0,85,0.00,,,0.00,weatherlink.com 1.10,2013-09-26 02:07:00,
2013-09-25 21:22:00,69.3,65.0,29.84,NNW,335,0.0,0.0,87,0.00,,,0.00,weatherlink.com 1.10,2013-09-26 02:22:00,
2013-09-25 21:37:00,68.9,65.0,29.84,NNW,336,0.0,0.0,88,0.00,,,0.00,weatherlink.com 1.10,2013-09-26 02:37:00,
2013-09-25 21:52:00,68.5,65.0,29.84,NNW,336,0.0,0.0,89,0.00,,,0.00,weatherlink.com 1.10,2013-09-26 02:52:00,
2013-09-25 22:07:00,68.1,65.0,29.84,NNW,336,0.0,0.0,89,0.00,,,0.00,weatherlink.com 1.10,2013-09-26 03:07:00,
2013-09-25 22:22:00,67.7,65.0,29.84,NNW,335,0.0,0.0,90,0.00,,,0.00,weatherlink.com 1.10,2013-09-26 03:22:00,
2013-09-25 22:37:00,67.3,65.0,29.84,NNW,335,0.0,0.0,91,0.00,,,0.00,weatherlink.com 1.10,2013-09-26 03:37:00,
2013-09-25 22:52:00,66.9,65.0,29.84,NNW,336,0.0,0.0,92,0.00,,,0.00,weatherlink.com 1.10,2013-09-26 03:52:00,
2013-09-25 23:07:00,66.6,64.0,29.84,NNW,336,0.0,0.0,92,0.00,,,0.00,weatherlink.com 1.10,2013-09-26 04:07:00,
2013-09-25 23:22:00,66.5,65.0,29.84,NNW,335,0.0,0.0,93,0.00,,,0.00,weatherlink.com 1.10,2013-09-26 04:22:00,
2013-09-25 23:37:00,66.2,64.0,29.84,NNW,336,0.0,0.0,93,0.00,,,0.00,weatherlink.com 1.10,2013-09-26 04:37:00,
2013-09-25 23:52:00,65.9,64.0,29.84,NNW,336,0.0,0.0,93,0.00,,,0.00,weatherlink.com 1.10,2013-09-26 04:52:00,